Flag for Saudi Arabia Weather past 2 weeks in Medina, Saudi Arabia

Now
99 °F

Clear.


Feels Like: 93 °F
Forecast: 78 / 106 °F
Wind: 16 mph from South

Location: Madinah

Current Time: May 25, 2015 at 9:40:22 PM

Latest Report: May 25, 2015 at 9:00 PM


Visibility: 10 mi

Pressure: 29.89 "Hg

Humidity: 10%

Dew point: 34 °F

Location of MedinaLocation

Historic Weather in Medina — Graph

°F

Medina temperature yesterday

Maximum temperature yesterday: 106 °F (at 2:00 PM)
Minimum temperature yesterday: 82 °F (at 6:00 AM)
Average temperature yesterday: 96 °F

Past Weeks' High & Low Weather Summary

 TemperatureHumidityPressure
High109 °F (May 19, 3:00 PM)24% (May 19, 3:00 AM)30.09 "Hg (May 19, 3:00 AM)
Low73 °F (May 11, 5:00 AM)1% (May 12, 4:00 PM)29.80 "Hg (May 19, 4:00 PM)
Average95 °F8%29.93 "Hg
* Reported May 10 8:00 PM — May 25 8:00 PM, Medina, Weather by CustomWeather, © 2015

Note: Actual official high and low records may vary slightly from our data, if they occured in-between our weather recording intervals... More about our weather records

Advertising

Medina weather history for previous 24 hours

 ConditionsComfort  
Time TempWeatherWind HumidityBarometerVisibility
8:00 PM
Mon, May 25
102 °FPassing clouds.7 mph5%29.89 "HgN/A
7:00 PM102 °FPassing clouds.9 mph5%29.86 "HgN/A
6:00 PM104 °FPassing clouds.12 mph6%29.86 "HgN/A
5:00 PM106 °FPassing clouds.16 mph5%29.83 "HgN/A
4:00 PM106 °FPassing clouds.9 mph4%29.86 "HgN/A
3:00 PM106 °FPassing clouds.9 mph4%29.86 "HgN/A
2:00 PM104 °FPassing clouds.No wind6%29.89 "Hg5 mi
1:00 PM104 °FPassing clouds.9 mph6%29.92 "Hg5 mi
12:00 PM102 °FSunny.9 mph9%29.95 "Hg5 mi
11:00 AM99 °FSunny.5 mph10%29.98 "Hg5 mi
10:00 AM95 °FSunny.12 mph11%29.98 "Hg5 mi
9:00 AM93 °FSunny.16 mph11%29.98 "Hg5 mi
8:00 AM91 °FSunny.17 mph11%29.95 "Hg10 mi
7:00 AM90 °FSunny.12 mph11%29.95 "Hg5 mi
6:00 AM88 °FSunny.7 mph12%29.92 "Hg5 mi
5:00 AM90 °FClear.8 mph11%29.89 "Hg10 mi
4:00 AM90 °FClear.No wind10%29.89 "Hg10 mi
3:00 AM90 °FClear.8 mph9%29.89 "Hg10 mi
2:00 AM91 °FClear.7 mph8%29.89 "Hg10 mi
1:00 AM93 °FClear.8 mph6%29.92 "Hg10 mi
12:00 AM93 °FClear.8 mph11%29.89 "Hg10 mi
11:00 PM
Sun, May 24
97 °FClear.6 mph8%29.89 "Hg10 mi
10:00 PM99 °FClear.5 mph7%29.89 "Hg10 mi
9:00 PM100 °FClear.9 mph4%29.89 "Hg10 mi
Weather by CustomWeather, © 2015

See weather overviewHow to use our weather pages